Torna al catalogo

STARLINK-33615

AttivoComunicazioniVLEO
NORAD 63426·PAYLOAD·🇺🇸 United States

Lanciato Mar 31, 2025 da Cape Canaveral Space Force Station

Loading…

Prossimi Passaggi (prossime 24 ore)

TLE

AggiornatoSource: CelesTrak SupGP

Epoca: Sep 14, 2026, 21:31 UTC

1 63426C 25065AD  26257.89701389  .00001393  00000+0  50476-4 0  2574
2 63426  42.9994 118.8192 0001333 270.1157  57.7557 15.27563563    13

Traccia STARLINK-33615 in tempo reale con AllMySat

Download on the App Store